Location: *
(47.1231°N, 4.5631°E)
Time: 14:13:51
(UTC+00:00)

Daily predictions for brighter satellites

Satellite Brightness Start Highest point End
(mag) Time Altitude Azimuth Time Altitude Azimuth Time Altitude Azimuth
CZ-4C R/B 4.1 18:11:52 10° W 18:16:37 28° NNW 18:22:07 10° NNE
COSMOS 2455 2.9 18:11:26 10° NNW 18:17:30 80° NE 18:23:31 10° SE
Cosmos 2237 Rocket 3.5 18:15:02 10° N 18:19:38 24° NE 18:24:12 10° E
FREGAT/IRIS 3.6 18:20:44 10° SE 18:23:05 24° ENE 18:25:27 10° NNE
Cosmos 1441 Rocket 4.2 18:20:35 10° SSE 18:23:46 26° E 18:26:58 10° NE
Cosmos 2154 Rocket 4.4 18:18:30 10° N 18:24:23 42° ENE 18:30:13 10° SE
USA 32 4.0 18:22:14 10° N 18:27:31 82° E 18:32:45 10° S
CSL-04 Rocket 4.4 18:23:47 10° S 18:29:12 60° WSW 18:34:42 10° NNW
Cosmos 389 Rocket 4.3 18:29:16 10° NNE 18:31:17 15° ENE 18:33:05 11° E
SL-8 R/B 3.8 18:31:15 10° SW 18:35:57 60° SSE 18:40:41 10° ENE
DMSP B5D1-3 4.5 18:31:36 10° NNE 18:36:44 84° ESE 18:41:49 10° SSW
MONITOR-E 3.9 18:36:34 10° SSE 18:39:19 63° ENE 18:42:07 10° N
Cosmos 2184 Rocket 4.0 18:33:48 10° N 18:40:04 84° E 18:46:21 10° S
Aureole 1 Rocket 3.2 18:35:27 10° NNW 18:41:04 76° ENE 18:45:14 10° SSE
SJ-6B 3.6 18:38:16 10° SE 18:41:59 34° ENE 18:45:44 10° N
MOS 1 4.3 18:37:44 10° SSE 18:43:22 67° ENE 18:49:02 10° N
Ariane Rocket 3.1 18:38:51 10° SSE 18:43:55 83° WSW 18:49:02 10° NNW
Okean 1 Rocket 3.3 18:40:07 10° SSE 18:44:14 44° E 18:48:24 10° NNE
Resurs 01 Rocket 3.3 18:42:02 12° E 18:44:18 17° ENE 18:47:11 10° NNE
Cosmos 1707 3.5 18:41:00 10° N 18:44:36 33° ENE 18:48:10 10° SE
Cosmos 1378 3.7 18:41:43 10° NNW 18:45:27 62° W 18:49:08 10° S
Meteor 1-4 Rocket 4.2 18:44:18 10° NNE 18:46:43 17° ENE 18:47:52 15° E
Okean 2 Rocket 4.2 18:42:40 10° SSW 18:47:00 49° WNW 18:51:23 10° N
Cosmos 1939 Rocket 3.1 18:44:26 10° S 18:48:16 70° WSW 18:52:08 10° NNW
SL-16 R/B 3.9 18:44:37 10° N 18:48:29 18° NE 18:51:53 11° E
Cosmos 2333 4.4 18:43:41 10° NNW 18:49:21 77° WSW 18:55:02 10° SSE
GP-B 3.0 18:46:28 10° N 18:50:57 83° E 18:55:22 10° S
USA 186 2.3 18:48:29 10° SE 18:51:42 44° ENE 18:54:59 10° N
NOSS 3-4 (A) 4.0 18:45:31 10° NW 18:52:23 63° NE 18:59:02 14° SE
NOSS 3-4 (C) 4.0 18:45:38 10° NW 18:52:30 63° NE 18:59:06 14° SE
Cosmos 407 Rocket 4.2 18:50:09 10° N 18:54:54 36° ENE 18:58:21 17° ESE
COSMOS 2428 2.7 18:52:37 10° NNW 18:58:21 90° ENE 19:04:02 10° SSE
Cosmos 2219 Rocket 2.2 18:53:03 10° NNW 18:58:42 88° ENE 19:04:18 10° SSE
SJ-11-01 4.3 18:55:57 10° SSE 19:00:41 70° ENE 19:05:26 10° N
HJ-1C 4.0 18:57:57 10° S 19:01:16 59° W 19:04:38 10° NNW
NOSS 3-3 (A) 4.2 18:55:54 10° SW 19:01:52 77° NW 19:08:39 10° NE
NOSS 3-3 (C) 4.2 18:56:00 10° SW 19:01:59 77° NW 19:08:44 10° NE
Meteor 1-12 Rocket 4.3 19:01:40 10° SSW 19:07:26 85° WNW 19:13:08 10° N
SPOT 3 Rocket 3.5 19:02:30 10° SSE 19:07:35 65° ENE 19:12:41 10° N
Cosmos 2360 Rocket 4.2 19:04:54 10° NW 19:09:36 28° WSW 19:14:18 10° SSW
Cosmos 1025 Rocket 4.0 19:05:49 10° NNW 19:09:55 47° W 19:14:01 10° SSW
Nadezhda 1 Rocket 3.9 19:06:38 10° S 19:12:42 89° W 19:18:49 10° N
Meteor 1-15 Rocket 4.5 19:10:02 10° SSE 19:15:31 48° E 19:21:08 10° NNE
Timation 2 Rocket 4.3 19:09:26 10° SW 19:16:03 73° WNW 19:22:24 10° NNE
USA 234 4.4 19:11:33 10° ENE 19:17:29 38° N 19:23:27 10° WNW
Cosmos 1892 Rocket 3.9 19:14:13 10° N 19:18:32 46° ENE 19:20:44 25° SE
Okean 1-7 Rocket 3.8 19:16:01 10° N 19:20:20 49° ENE 19:22:38 25° SE
NOSS 0 Rocket 3.9 19:15:27 10° NNW 19:21:41 82° ENE 19:26:27 18° SSE
Cosmos 2219 3.4 19:16:54 10° S 19:22:24 49° ESE 19:27:56 10° NE
Cosmos 2227 Rocket 2.9 19:19:07 10° SSE 19:23:56 30° ESE 19:28:48 10° NE
Cosmos 1295 Rocket 4.4 19:17:48 10° N 19:24:03 84° E 19:30:11 10° S
Cosmos 1140 Rocket 3.9 19:20:06 10° N 19:25:03 42° ENE 19:27:07 29° ESE
ADEOS Rocket 3.6 19:19:58 10° NNE 19:27:06 55° E 19:34:38 10° S
CZ-2C R/B 3.8 19:27:32 10° N 19:32:01 75° WNW 19:36:26 10° SSW
Cosmos 1437 Rocket 3.8 19:29:04 10° N 19:32:05 27° ENE 19:32:05 27° ENE
Cosmos 1371 Rocket 4.1 19:27:21 10° S 19:32:29 53° ESE 19:37:41 10° NNE
Cosmos 2297 Rocket 2.6 19:29:47 10° S 19:34:57 38° ESE 19:40:08 10° NE
ARGOS 3.1 19:31:11 18° SSE 19:35:11 78° ENE 19:40:36 10° NNW
ATLAS 2AS CENTAUR R/B 3.2 19:28:32 10° NW 19:36:06 62° WSW 19:41:52 16° SSE
H-2A R/B 1.9 19:35:31 20° SSE 19:39:01 88° ENE 19:44:04 10° NNW
Cosmos 405 Rocket 2.5 19:40:22 56° ESE 19:40:39 58° E 19:44:18 10° NNE
Cosmos 1461 4.1 19:42:24 10° WSW 19:46:12 40° NW 19:49:58 10° NNE
Cosmos 676 Rocket 4.2 19:41:32 10° NNW 19:46:42 52° ENE 19:48:04 41° ESE
Meteor 1-24 Rocket 4.1 19:41:30 10° N 19:47:02 46° ENE 19:48:37 38° ESE
Cosmos 2341 Rocket 4.0 19:40:55 10° N 19:47:12 82° W 19:53:02 12° S
ASTEX 1 4.3 19:46:05 10° N 19:50:48 50° WNW 19:55:30 10° SSW
Cosmos 2181 Rocket 3.9 19:44:55 10° S 19:51:07 74° E 19:57:27 10° NNE
Cosmos 2333 Rocket 3.5 19:46:19 10° NW 19:51:30 37° WSW 19:56:41 10° S
GENESIS II 4.5 19:53:32 10° NNW 19:57:36 55° NE 19:57:40 54° NE
SL-24 R/B 4.1 19:58:07 52° SSE 19:59:11 80° ENE 20:04:02 10° NNW
MetOp-A 4.0 19:57:57 38° SSE 20:00:08 84° ENE 20:05:32 10° NNW
Cosmos 1544 Rocket 3.5 20:00:48 64° ESE 20:00:52 64° E 20:05:19 10° NNE
Meteor 2-5 Rocket 3.7 19:55:24 10° N 20:01:14 80° ENE 20:03:38 38° SSE
Cosmos 1455 Rocket 2.9 20:00:39 51° S 20:01:44 80° E 20:06:13 10° NNE
Cosmos 1190 Rocket 4.1 19:58:33 10° NNW 20:03:51 73° WSW 20:05:52 38° S
Cosmos 2237 Rocket 2.3 19:58:34 10° NNW 20:04:16 72° WSW 20:06:39 36° S
ERBS 3.9 20:02:00 10° NW 20:04:33 28° N 20:04:33 28° N
SL-08 RB Rocket 3.8 20:03:31 40° S 20:05:09 75° WSW 20:09:51 10° NNW
Cosmos 389 Rocket 3.8 20:03:01 10° NNW 20:06:13 37° W 20:07:00 32° SW
In-Cosmos 22 4.5 20:01:08 10° NNW 20:06:24 63° W 20:09:45 23° S
Cosmos 2218 Rocket 4.0 20:02:19 10° N 20:08:45 88° E 20:11:47 34° S
Cosmos 1980 4.1 20:07:33 10° NW 20:13:05 58° WSW 20:15:25 34° S
Cosmos 1023 Rocket 4.5 20:08:26 10° NNW 20:13:37 78° WSW 20:14:45 54° S
Cosmos 2366 rocket 4.0 20:08:40 10° N 20:15:04 89° W 20:17:48 37° S
Cosmos 1674 3.4 20:11:48 10° N 20:14:32 47° N 20:14:32 47° N
Resurs 1-3 4.4 20:16:52 36° SSW 20:18:13 49° W 20:22:30 10° NNW
SL-8 R/B 3.7 20:13:41 10° W 20:18:30 77° N 20:18:53 71° NE
SPOT 5 4.3 20:21:03 25° NE 20:21:03 25° NE 20:24:06 10° N
Resurs 01 Rocket 2.0 20:19:37 53° SW 20:20:20 61° WSW 20:24:45 10° NNW
Meteor 1-22 Rocket 4.3 20:19:01 52° SSE 20:20:25 69° E 20:26:31 10° NNE
Cosmos 864 Rocket 4.4 20:14:18 10° N 20:20:33 85° W 20:22:56 41° S
Cosmos 1626 Rocket 3.9 20:16:25 10° N 20:19:57 55° NNE 20:19:57 55° NNE
CZ-2C R/B 3.3 20:20:05 43° S 20:21:46 68° WSW 20:27:14 10° NNW
Meteor 1-4 Rocket 4.0 20:18:40 10° NNW 20:21:55 33° W 20:22:06 33° W
Cosmos 1821 Rocket 4.3 20:18:26 10° N 20:24:15 45° ENE 20:24:15 45° ENE
SL-8 Rocket 4.4 20:20:19 10° NNW 20:26:24 59° W 20:29:57 25° SSW
Cosmos 2056 Rocket 4.0 20:26:16 10° SW 20:31:38 63° WNW 20:37:02 10° NNE
DMSP B5D2-2 4.0 20:27:54 10° NNE 20:33:14 89° WNW 20:33:46 73° SSW
SL-16 R/B 2.0 20:27:50 10° NNW 20:33:34 80° ENE 20:33:46 78° E
SPOT 1/Viking Rocket 4.1 20:38:50 46° NE 20:38:50 46° NE 20:42:58 10° N
Cosmos 1602 Rocket 4.4 20:36:13 10° N 20:39:21 46° N 20:39:21 46° N
Cosmos 1741 Rocket 4.4 20:41:41 10° NNW 20:46:11 56° NNE 20:46:11 56° NNE
Cosmos 2082 4.1 20:50:22 53° NNE 20:50:22 53° NNE 20:54:43 10° NNE
BREEZE M DEB (TANK) 3.8 20:52:44 10° WNW 20:54:23 37° WNW 20:54:23 37° WNW
CZ-2C R/B 2.9 20:51:12 10° NNE 20:55:49 63° NNE 20:55:49 63° NNE
ERS-1 Rocket 3.7 21:00:29 48° N 21:00:29 48° N 21:04:08 10° N
USA 234 4.1 20:57:41 34° NE 20:59:41 43° NNE 21:05:47 10° NW
Terra 3.4 21:02:05 27° NNE 21:02:05 27° NNE 21:04:30 10° N
Spot 2 Rocket 4.2 21:00:20 48° W 21:00:20 48° W 21:05:06 10° NNW
Cosmos 2227 Rocket 3.0 21:02:18 10° SW 21:07:46 48° NW 21:13:16 10° NNE
Cosmos 2297 Rocket 3.4 21:13:42 10° WSW 21:18:59 39° NW 21:24:17 10° NNE
Cosmos 1934 Rocket 4.4 21:24:51 10° N 21:29:35 56° N 21:29:35 56° N
Cosmos 1943 4.3 21:32:30 10° NNW 21:36:12 39° N 21:36:12 39° N
CZ-4C R/B 4.2 21:52:32 10° NNW 21:58:15 29° NNE 21:59:37 27° NE
SL-16 R/B 4.5 22:13:22 10° WNW 22:15:39 16° W 22:15:39 16° W
USA 234 4.3 22:45:01 39° NW 22:45:01 39° NW 22:48:52 10° NW
Cosmos 2263 Rocket 4.3 23:23:14 23° N 23:23:14 23° N 23:25:32 10° NNE
CZ-4C R/B 3.9 23:40:51 10° NW 23:44:46 38° NNW 23:44:46 38° NNW
SL-16 R/B 4.4 23:50:33 23° NE 23:50:33 23° NE 23:54:48 10° N
USA 267 4.5 23:44:15 10° NE 23:47:58 35° NE 23:47:58 35° NE
